Lapse_Rate
5.5 5.5 5.6 5.6 5.8 5.9 5.9 6.0 6.1 6.2 6.2 6.2 6.3 6.3 6.0 6.1 6.0 6.0 5.6 5.5 5.6 5.7 5.9 6.0 6.2 6.1 6.0 5.9 5.8 5.4 5.6 6.4 6.3 6.1 6.1 6.3 6.3 6.2 6.0 6.2 5.9 6.2 6.3 6.7 6.7
5.1 5.2 5.3 5.4 5.5 5.6 5.8 5.8 5.9 6.1 6.3 6.3 6.3 6.3 6.4 6.2 6.2 5.9 5.9 6.0 5.8 5.5 5.8 6.2 6.3 6.3 6.1 5.9 5.9 5.8 6.1 6.5 6.1 6.1 6.3 6.6 6.4 6.2 6.3 6.3 6.3 6.4 6.5 6.4 6.8
5.0 5.1 5.1 5.2 5.3 5.4 5.5 5.6 5.7 5.9 6.0 6.3 6.4 6.5 6.4 6.5 6.4 6.1 6.2 6.0 6.2 5.7 5.4 5.2 5.0 5.5 5.5 5.7 6.3 6.4 6.1 6.0 5.8 5.8 6.2 6.7 6.4 6.1 6.4 6.2 6.2 6.4 6.8 6.8 6.9
5.0 5.0 5.1 5.1 5.2 5.2 5.2 5.2 5.4 5.6 5.9 6.2 6.3 6.5 6.5 6.4 6.3 6.2 6.2 6.2 6.1 5.8 5.7 5.5 5.6 5.9 6.2 6.5 6.5 6.4 6.2 6.0 5.5 6.0 6.3 6.1 6.4 6.1 6.2 5.9 6.0 6.0 6.1 6.7 6.6
5.2 5.2 5.3 5.4 5.4 5.4 5.3 5.3 5.4 5.4 5.5 5.7 6.2 6.5 6.5 6.3 6.1 6.6 6.3 6.1 6.1 5.9 5.9 5.8 5.9 6.3 6.4 6.7 6.7 6.6 6.4 6.3 5.7 5.9 5.8 5.8 6.4 6.0 6.0 5.7 6.0 6.4 6.6 6.4 6.5
5.1 5.1 5.3 5.4 5.4 5.3 5.4 5.5 5.5 5.5 5.6 5.7 5.9 6.3 6.5 6.2 6.1 6.3 6.1 6.1 6.2 5.9 5.9 5.9 5.7 5.9 6.1 6.4 6.9 7.4 7.1 6.1 5.9 6.2 6.2 5.7 5.7 6.0 6.3 6.2 6.1 6.4 6.7 6.5 6.7
5.1 5.1 5.2 5.2 5.3 5.3 5.3 5.4 5.4 5.5 5.5 5.7 6.0 6.3 6.4 6.2 6.3 6.4 6.1 6.0 6.1 6.0 5.7 5.6 5.6 5.4 5.6 5.6 6.8 7.1 7.5 5.8 5.9 6.5 6.5 5.9 5.9 6.5 6.1 6.3 6.5 6.2 6.7 6.5 7.0
5.4 5.2 5.2 5.3 5.4 5.4 5.3 5.5 5.5 5.5 5.4 5.5 5.7 6.1 6.3 6.0 6.1 6.2 6.2 6.0 5.7 6.0 5.3 5.3 5.2 5.1 5.1 5.2 6.5 6.7 6.2 5.3 6.5 6.3 6.6 6.1 5.8 5.6 6.3 6.7 6.5 6.4 6.8 6.8 6.6
5.2 5.3 5.1 5.3 5.5 5.6 5.5 5.6 5.6 5.6 5.5 5.5 5.6 5.7 5.7 5.5 5.7 5.8 6.0 5.9 5.5 5.6 5.5 4.8 4.7 4.9 5.0 4.7 5.4 5.7 6.1 5.8 6.7 6.5 6.3 6.3 6.5 6.4 6.8 7.1 6.7 6.8 7.0 7.1 6.7
5.3 5.5 5.1 5.3 5.3 5.5 5.6 5.6 5.6 5.6 5.3 5.4 5.4 5.6 5.2 5.2 5.2 5.3 5.8 6.1 5.5 5.4 5.2 4.8 4.4 4.7 4.7 4.5 4.4 5.3 5.6 6.3 6.8 6.9 6.6 7.0 6.9 6.3 7.0 7.3 6.9 7.0 7.0 7.0 6.8
5.4 5.4 5.1 5.2 5.3 5.4 5.6 5.6 5.5 5.5 4.7 5.2 5.0 5.2 4.7 4.7 4.8 4.8 4.8 5.7 5.6 5.0 5.0 5.1 4.8 5.2 6.7 5.6 5.8 5.5 5.8 6.4 7.4 7.4 7.0 7.1 7.2 6.7 6.8 7.3 7.1 7.0 7.0 7.4 7.4
5.5 5.5 5.3 5.3 5.2 5.3 5.3 5.5 5.6 5.1 4.9 4.6 4.9 4.5 4.5 4.6 4.7 4.6 4.6 4.8 5.1 4.9 4.7 4.8 4.7 6.1 5.8 5.6 5.4 5.6 5.6 6.1 6.8 6.9 6.9 7.1 7.1 6.9 6.8 7.5 7.4 7.2 7.2 7.6 7.3
5.3 5.6 5.5 5.4 5.3 5.2 5.1 5.3 5.4 5.4 5.1 4.1 4.3 4.5 5.0 4.7 5.0 4.7 4.6 4.7 4.6 4.5 4.6 4.5 5.2 5.3 5.7 5.7 5.3 5.2 5.3 6.5 6.9 7.2 7.5 7.3 7.2 7.2 7.1 7.1 6.9 6.8 6.7 7.1 7.4
5.3 5.4 5.7 5.7 5.7 5.5 5.0 5.3 5.4 5.5 5.0 4.9 4.7 4.8 5.7 5.2 4.9 5.2 4.8 4.9 4.9 4.8 4.8 4.5 4.9 4.8 5.6 5.9 5.9 5.4 5.7 6.3 6.9 7.1 7.3 7.5 6.7 7.4 7.4 7.4 7.2 6.9 6.6 7.2 7.4
5.2 5.5 5.4 6.0 6.0 5.9 6.0 5.9 5.8 6.1 5.1 5.4 5.3 5.4 5.8 6.2 5.7 5.7 5.8 5.4 5.3 5.1 4.9 4.6 4.9 4.9 4.8 5.5 6.0 6.1 6.2 6.2 6.5 6.6 6.9 7.5 7.1 7.1 7.2 7.2 7.4 7.6 7.2 7.1 7.5
5.3 5.7 6.1 5.8 6.1 6.3 6.4 6.4 6.4 6.5 5.9 6.0 5.7 5.7 6.1 6.3 6.6 6.7 6.9 6.7 6.1 6.0 5.6 5.2 5.2 4.9 4.9 5.7 5.8 6.4 6.2 6.2 6.5 6.7 6.5 6.4 6.8 6.2 6.7 7.4 7.7 8.1 7.6 7.6 7.5
5.2 6.1 6.2 6.3 6.2 6.2 6.3 6.6 6.5 6.5 6.2 5.6 5.7 5.8 6.0 5.8 5.9 6.0 6.1 6.9 6.8 6.3 6.3 5.7 5.7 5.4 5.5 5.5 5.7 5.9 5.8 6.0 5.6 5.9 4.6 6.6 6.7 5.3 6.5 7.5 7.7 8.0 8.2 8.1 8.0
5.9 6.5 6.3 6.5 6.2 6.0 6.3 6.3 6.2 5.8 5.9 5.5 5.4 5.7 5.6 5.5 5.4 5.4 5.6 5.8 6.2 5.7 6.0 5.0 5.5 6.3 6.0 5.4 5.8 5.8 5.7 6.0 4.5 4.5 5.0 6.3 5.5 5.3 6.3 7.1 7.7 8.3 8.4 8.3 8.3
6.5 6.3 6.3 6.5 6.1 5.7 5.9 5.9 6.0 5.5 5.4 5.7 5.7 5.5 5.5 5.3 5.3 5.2 5.0 4.8 5.1 5.1 5.2 5.0 4.7 6.2 6.6 6.6 6.2 6.2 5.9 6.1 6.8 6.0 5.2 6.1 6.1 6.0 6.1 7.1 7.6 8.4 8.4 8.3 8.2
6.6 6.6 6.5 6.4 6.0 5.7 5.5 5.5 5.5 5.4 5.6 5.5 5.5 5.7 5.4 5.4 5.3 5.4 5.4 4.9 5.2 5.3 5.2 4.5 3.6 6.1 6.9 6.9 7.0 6.2 6.4 6.5 6.6 5.3 4.2 5.2 5.9 6.1 6.0 6.6 7.6 8.2 8.5 8.3 8.5
6.7 6.4 6.3 6.0 5.9 5.8 5.4 5.2 5.4 5.4 5.5 5.6 5.7 5.7 5.7 5.6 5.4 5.4 5.5 5.4 5.5 5.4 5.3 5.0 4.6 4.2 5.7 6.9 7.2 6.6 6.6 6.5 6.7 6.3 4.9 4.2 5.5 6.4 6.5 6.8 7.3 8.2 8.7 8.5 8.8
6.6 6.3 5.9 5.7 5.5 5.4 5.2 5.3 5.1 5.0 5.1 5.5 5.7 5.8 5.7 5.7 5.7 5.8 5.8 6.0 6.1 6.2 5.8 5.1 4.2 3.6 5.0 7.1 7.3 7.2 6.8 6.7 6.6 5.5 5.6 5.7 5.7 6.5 6.9 7.2 7.6 8.2 8.7 8.7 8.9
6.3 5.8 5.5 5.4 5.3 5.5 5.4 5.4 5.4 5.2 5.4 5.4 5.8 6.0 6.1 6.2 6.2 6.2 6.4 6.5 6.9 7.3 7.4 6.5 5.2 4.3 4.9 7.3 7.4 6.7 7.0 6.8 6.6 6.9 5.9 5.8 5.3 6.9 6.7 6.8 7.3 7.8 8.7 8.6 8.9
5.7 5.4 5.2 4.9 4.9 5.0 5.5 5.6 5.4 5.2 5.4 5.7 6.0 6.3 6.4 6.5 6.5 6.6 6.8 7.2 7.4 7.7 7.5 6.8 6.0 4.9 4.3 6.4 6.1 7.0 7.2 7.0 6.8 7.2 6.4 6.0 6.0 6.5 7.3 7.3 7.6 8.0 8.6 8.8 8.8
5.1 5.0 4.9 4.7 4.5 4.4 4.7 5.0 5.3 5.4 5.6 5.8 6.1 6.2 6.6 6.7 6.9 7.2 7.4 7.6 7.4 7.5 7.3 7.1 6.7 5.8 5.0 5.1 5.2 5.3 6.7 6.4 6.5 6.3 6.5 6.4 6.2 7.1 7.7 7.4 7.3 7.9 8.3 8.7 8.6
4.8 4.8 5.1 4.6 4.6 4.6 4.2 4.2 4.7 5.1 5.5 6.0 6.3 6.5 6.7 6.7 6.8 6.9 7.3 7.6 7.7 7.7 7.5 7.4 5.7 5.6 4.8 5.1 5.3 5.6 6.4 6.4 5.8 6.5 6.5 6.6 6.6 7.6 7.8 7.7 7.4 7.6 8.0 8.4 8.5
5.1 5.2 5.2 4.7 4.6 4.6 4.2 4.3 5.0 5.4 6.2 6.4 6.6 6.7 6.7 6.8 7.0 7.2 7.4 7.5 7.6 7.7 7.6 6.6 5.1 5.6 4.8 6.3 6.2 5.7 6.1 6.6 6.3 6.5 6.9 6.7 6.8 7.8 7.5 8.1 8.2 8.0 8.1 8.5 8.0
Wind_Speed
23 24 24 23 22 21 21 22 22 22 19 18 15 14 13 12 11 3 7 13 11 11 11 14 4 8 7 3 5 4 1 3 4 5 4 4 3 7 3 9 5 4 6 13 21
25 25 26 25 24 23 22 21 21 22 21 19 16 13 11 9 3 8 12 17 20 18 12 18 9 10 6 5 3 3 2 5 5 5 5 7 4 7 5 10 4 10 16 22 21
27 27 27 27 27 26 24 22 21 20 20 18 15 12 9 4 3 6 12 23 23 17 9 10 12 7 6 5 5 5 5 4 3 6 6 8 3 5 7 7 7 14 22 24 22
28 29 29 29 29 29 28 25 22 20 16 15 11 10 4 1 1 5 17 20 23 14 13 10 11 9 6 6 6 4 8 6 3 5 2 1 4 3 9 4 11 21 27 25 24
30 31 31 31 32 32 30 26 22 19 13 9 6 6 1 1 6 12 5 16 12 9 15 8 16 6 7 6 4 11 6 4 10 8 5 5 8 5 9 9 15 21 23 23 21
30 31 32 31 31 32 32 26 22 20 10 5 6 4 0 1 4 17 7 6 7 9 8 8 10 5 5 5 9 6 15 9 8 11 7 12 5 6 5 16 18 23 23 21 21
29 30 31 32 32 34 33 27 22 16 2 9 8 2 3 7 5 10 5 6 3 7 7 2 5 9 5 2 8 10 7 4 6 5 5 3 3 6 10 16 19 20 20 19 18
30 31 31 32 32 34 35 27 22 2 9 12 8 1 4 5 11 8 3 3 5 4 3 6 4 1 2 3 4 6 5 1 3 7 6 9 7 5 16 18 18 20 20 19 19
31 32 35 35 35 35 35 26 5 7 10 10 3 2 5 6 7 6 3 2 6 4 5 1 2 1 2 1 4 5 4 6 3 8 3 6 4 9 15 17 19 20 20 19 19
32 33 35 36 35 34 35 16 9 8 5 5 2 1 6 9 8 8 4 2 4 8 2 1 3 2 2 5 6 6 4 4 4 4 7 7 6 11 13 15 19 19 19 20 20
34 34 36 36 34 33 14 1 6 5 9 0 8 3 6 8 5 9 5 3 4 4 7 5 4 17 27 9 3 3 4 6 4 5 5 9 9 14 14 11 15 17 18 20 22
32 33 34 35 32 30 5 7 7 5 6 4 5 4 7 3 3 19 10 4 3 4 5 3 12 12 5 6 6 5 3 4 4 3 6 5 13 12 18 22 23 22 20 20 18
33 35 35 35 31 4 2 8 3 5 3 7 4 3 13 1 4 14 9 5 3 4 7 6 6 11 9 6 10 12 10 6 2 3 5 5 5 7 12 8 14 14 15 17 20
36 36 37 37 3 4 1 4 7 4 4 4 5 7 11 2 5 5 7 4 3 3 7 7 14 6 10 15 11 10 11 15 8 2 3 4 5 6 10 17 19 16 18 18 19
37 36 33 9 3 2 5 11 0 3 3 3 4 4 6 6 5 8 8 6 3 5 2 6 4 11 11 17 12 12 7 12 12 4 2 5 0 7 12 12 16 19 20 19 20
39 37 30 2 1 6 13 6 3 5 4 1 2 4 5 6 4 5 6 6 3 3 2 7 5 4 11 14 17 5 2 5 3 3 11 11 10 6 7 12 17 19 20 20 20
40 38 13 2 4 7 7 4 4 4 3 2 2 4 3 5 6 7 5 11 5 7 7 8 5 5 10 4 14 10 11 1 3 5 14 8 12 10 7 14 16 22 23 23 21
40 29 4 4 16 6 3 5 3 2 1 1 2 1 3 4 3 6 4 3 12 6 2 4 6 5 7 14 8 15 12 6 8 5 13 5 8 6 19 10 19 20 23 17 18
29 5 3 4 13 1 5 3 4 1 2 2 3 3 3 3 2 3 5 3 3 5 4 5 6 11 9 5 13 6 18 10 4 1 2 10 4 7 8 17 15 20 15 16 20
5 4 4 16 8 4 4 4 4 1 1 3 3 2 2 2 1 2 1 2 6 5 6 3 8 7 11 7 12 16 9 11 4 9 5 4 6 9 8 11 12 13 16 17 19
4 4 3 21 3 5 3 4 4 4 1 6 6 4 5 3 5 4 4 2 4 6 4 4 5 9 11 7 14 10 14 10 7 6 9 1 5 8 12 15 13 17 16 18 19
3 3 5 7 4 2 2 5 6 2 2 3 4 6 6 6 3 5 7 5 8 7 3 2 4 7 9 18 9 7 6 10 12 17 3 4 9 4 11 12 10 14 15 17 20
4 3 5 4 4 4 6 5 4 3 3 2 3 6 4 5 2 5 4 5 10 7 6 7 4 6 7 10 4 5 8 9 3 6 19 15 6 2 6 7 10 11 9 13 19
3 4 4 4 2 2 5 4 5 5 1 5 4 2 2 1 3 3 4 6 9 6 7 6 6 9 7 4 6 7 12 7 3 8 11 17 10 9 8 5 5 7 8 8 9
2 0 0 4 3 3 3 4 7 5 4 7 3 4 4 3 2 4 5 3 6 9 4 3 7 12 21 21 17 17 16 14 5 7 11 8 17 13 14 10 10 9 8 8 10
2 2 2 2 2 6 2 2 5 6 2 5 7 8 7 4 6 8 6 5 7 8 7 5 6 6 11 17 18 19 17 17 14 7 8 6 6 3 4 2 1 4 6 11 15
1 0 1 2 2 3 1 4 7 10 7 15 8 6 8 14 10 11 10 7 8 9 12 6 3 3 6 5 10 8 11 5 7 10 2 8 2 9 2 4 5 8 10 10 11
Wind_Direction
350 348 346 343 338 333 327 322 318 316 314 313 314 316 317 315 309 208 231 218 187 190 157 138 121 146 154 184 241 141 50 254 228 177 186 211 164 158 153 133 147 141 142 137 150
350 347 344 341 337 333 328 321 316 312 311 311 311 312 313 319 255 239 248 215 202 173 146 160 159 147 170 188 241 172 183 227 219 169 198 151 168 139 135 149 67 87 114 137 152
348 345 343 339 337 333 327 321 317 311 309 308 308 308 317 319 285 239 298 208 200 183 161 146 138 139 170 169 219 180 216 221 222 196 167 139 105 143 147 211 174 156 145 151 157
347 342 341 340 336 332 327 325 321 317 310 304 300 294 340 231 2 24 337 179 185 168 143 149 155 150 164 192 198 235 232 257 318 197 69 137 132 193 185 179 152 157 156 157 163
346 340 338 338 334 331 326 327 327 320 312 292 273 277 6 339 258 338 19 161 171 155 173 152 165 142 176 190 157 225 261 273 254 277 269 237 235 203 207 101 128 144 157 162 163
343 340 337 336 333 331 326 329 331 321 309 230 210 126 341 282 313 358 88 140 181 168 172 148 177 169 160 189 193 204 226 255 285 263 254 251 233 155 137 128 137 150 160 167 170
342 339 337 334 335 331 325 330 330 324 68 151 162 104 54 236 330 330 267 176 291 202 166 176 135 172 143 131 251 245 294 318 244 250 239 140 151 211 130 140 147 156 164 172 174
341 338 336 335 336 331 323 331 326 65 122 139 154 150 253 246 285 303 251 203 164 222 20 84 27 64 192 294 358 171 155 183 227 193 244 135 257 169 153 147 156 165 169 174 184
341 341 336 336 336 330 321 330 323 129 136 146 78 75 4 312 337 318 262 225 127 129 328 156 105 200 325 358 8 352 184 195 285 183 178 174 260 164 164 160 165 171 175 180 187
341 339 334 335 334 328 325 324 134 115 146 194 162 350 349 322 329 314 314 160 128 130 25 78 97 143 20 148 209 192 184 243 189 205 185 200 250 159 173 167 173 175 180 188 191
338 337 333 334 332 327 337 39 18 351 40 91 286 223 289 301 305 344 338 119 98 110 163 193 154 206 214 205 256 193 211 189 226 228 139 213 212 188 179 182 182 182 188 196 197
336 336 335 335 331 323 310 83 131 208 317 311 247 254 268 263 339 354 358 85 166 173 135 121 227 228 171 192 223 251 267 256 273 207 175 206 232 190 183 197 191 184 190 200 197
340 336 337 336 327 9 1 138 149 128 98 301 268 319 337 36 62 356 10 321 142 176 197 179 237 178 186 182 202 230 235 230 157 332 213 132 269 169 206 204 199 205 202 197 197
338 338 339 334 34 321 18 144 289 185 63 291 349 359 353 5 47 14 341 9 316 215 194 223 245 216 201 209 183 227 202 249 268 357 222 188 258 204 186 202 201 195 199 201 200
336 336 337 352 290 339 318 329 323 64 349 65 3 325 340 74 273 345 329 2 351 298 51 229 216 205 228 219 188 237 161 214 239 213 272 253 272 269 170 200 205 204 207 203 200
333 335 340 68 126 247 303 302 59 50 233 56 72 345 23 351 25 309 12 14 90 324 241 235 240 180 239 219 208 201 151 164 130 167 245 223 214 259 193 203 211 211 211 207 202
331 331 330 266 304 310 317 49 40 151 345 93 336 356 62 335 15 357 37 42 46 19 14 329 258 170 235 299 200 177 172 254 219 208 236 210 213 225 201 207 202 209 213 207 200
329 324 298 240 295 302 47 53 198 84 74 100 50 318 81 357 62 4 15 78 40 43 9 21 311 182 172 201 208 205 188 170 192 210 235 156 219 235 221 209 210 213 217 199 198
329 337 337 294 333 115 66 44 208 182 284 22 11 86 336 358 79 17 10 108 82 53 59 344 262 329 277 294 206 209 209 184 116 242 203 215 250 296 208 211 209 225 214 200 200
339 358 290 335 341 58 78 221 201 226 327 75 151 214 223 256 136 59 339 183 125 117 112 9 300 271 295 294 252 215 164 206 207 213 242 268 199 213 189 219 219 227 207 209 204
35 12 266 339 53 51 162 221 238 238 160 185 193 214 217 211 164 192 218 164 114 121 117 153 204 290 321 217 206 214 207 210 177 182 222 309 254 201 189 195 209 226 196 208 203
15 3 320 343 48 36 32 311 296 264 348 284 177 195 200 178 221 207 208 167 111 118 137 128 278 271 259 266 305 310 244 186 203 213 202 138 239 215 195 202 208 221 197 205 204
356 292 318 33 61 348 318 303 280 326 296 277 256 205 185 177 197 219 203 147 133 151 177 170 225 280 284 264 222 199 234 231 137 185 221 218 241 233 217 241 235 235 211 201 207
9 355 344 34 48 66 347 297 309 315 264 343 282 95 70 209 249 267 219 172 167 183 201 189 231 228 253 306 12 324 327 243 258 217 214 223 236 237 258 215 260 238 252 215 201
31 357 111 337 359 352 308 302 304 319 347 7 296 89 39 282 299 220 245 232 166 221 149 162 252 257 264 268 276 270 269 279 257 259 215 190 219 222 228 238 218 230 261 264 221
85 56 339 279 286 314 311 262 278 306 264 255 235 290 293 237 231 260 229 199 213 204 168 181 266 271 264 258 247 252 254 245 241 255 253 233 237 13 285 136 101 236 231 246 240
192 257 128 275 299 306 276 296 297 296 259 249 250 276 258 256 263 241 231 239 227 180 190 192 236 246 265 287 197 241 238 229 91 51 359 233 326 311 284 86 18 350 329 303 264